Regional Weather Roundup
Issued by NWS Burlington, VT

Current Version | Previous Version | Text Only | Print | Product List | Glossary On
Versions: 1 2 3 4 5 6 7 8 9 10 11 12 13 14 15 16 17 18 19 20 21 22 23 24 25 26 27 28 29 30 31 32 33 34 35 36 37 38 39 40 41 42 43 44 45 46 47 48 49 50
000
ASUS41 KBTV 020930
RWRBTV
VERMONT REGIONAL WEATHER ROUNDUP
NATIONAL WEATHER SERVICE BURLINGTON VT
500 AM EDT THU JUL 02 2015

NOTE: "FAIR" INDICATES FEW OR NO CLOUDS BELOW 12,000 FEET WITH NO
SIGNIFICANT WEATHER AND/OR OBSTRUCTIONS TO VISIBILITY.

* THESE REPORTS ARE NOT UNDER NWS QUALITY CONTROL AND/OR DO NOT
  REPORT WEATHER SUCH AS PRECIPITATION AND FOG.

VTZ001>019-021000-
_____VERMONT_____


CITY           SKY/WX    TMP DP  RH WIND       PRES   REMARKS
BURLINGTON     CLEAR     60  50  69 W8        29.84R
MONTPELIER     CLOUDY    56  54  93 NW7       29.87R
MORRISVILLE    MOCLDY    60  51  72 NW5       29.84S
ST. JOHNSBURY*   N/A     59  52  77 MISG      29.79S
RUTLAND*       MOCLDY    61  52  72 W6        29.85S
SPRINGFIELD    PTCLDY    58  54  86 W3        29.83R
BENNINGTON     CLEAR     60  56  86 SW8       29.88R
GALLUP MILLS*    N/A     55 N/A N/A MISG        N/A
MT. MANSFIELD*   N/A     45 N/A N/A NW30        N/A

_____LAKE CHAMPLAIN_____


CITY           SKY/WX    TMP DP  RH WIND       PRES   REMARKS
BURTON ISLAND*   N/A     61  52  72 W15         N/A
COLCHESTER RF*   N/A     61  52  72 W14         N/A
DIAMOND ISL*     N/A     63  54  72 W16         N/A

$$

NYZ007-026>031-035-052-083-021000-
_____NORTHERN NEW YORK_____


CITY           SKY/WX    TMP DP  RH WIND       PRES   REMARKS
PLATTSBURGH    CLEAR     57  50  77 W6        29.84R
SARANAC LAKE   CLOUDY    52  49  89 VRB7      29.87S
MASSENA        CLEAR     52  49  89 SW8       29.88R
OGDENSBURG*    CLEAR     54  50  87 CALM      29.89R
POTSDAM*       CLEAR     54  52  94 W5        29.89S
STARK FALLS*     N/A     59 N/A N/A SW5         N/A
WATERTOWN      CLOUDY    55  54  96 CALM      29.90S
FT DRUM        MOCLDY    56  54  93 CALM      29.89S
ALBANY         PTCLDY    62  55  77 SW5       29.88R
GLENS FALLS    CLEAR     57  54  89 CALM      29.84R

$$
NHZ002-005-011-021000-
_____NEW HAMPSHIRE_____


CITY           SKY/WX    TMP DP  RH WIND       PRES   REMARKS
LEBANON        CLEAR     58  54  86 CALM      29.80R
KEENE          CLEAR     55  52  88 SW3       29.85R
PLYMOUTH       FAIR      55  55 100 CALM      29.79S FOG
WHITEFIELD     MOCLDY    58  55  90 SW3       29.81S

$$

_____REGIONAL QUEBEC LOCATIONS_____


CITY           SKY/WX    TMP DP  RH WIND       PRES   REMARKS
MONTREAL       CLOUDY    57  52  82 W10       29.80R
QUEBEC CITY    CLOUDY    57  52  82 SW18G25   29.64R
SHERBROOKE     CLOUDY    57  52  82 W14G21    29.77R

_____REGIONAL ONTARIO LOCATIONS_____


CITY           SKY/WX    TMP DP  RH WIND       PRES   REMARKS
OTTAWA         PTCLDY    50  48  93 W8        29.87R

______KEY______
VSB  - VISIBILITY IN MILES
WCI  - WIND CHILL INDEX
HX   - HEAT INDEX
$$
NNNN


USA.gov is the U.S. government's official web portal to all federal, state and local government web resources and services.